This demonstration page uses our WeatherBlox Daily Observations layout. Learn more.

Left ArrowRight Arrow

34.74481, -87.66753

Hourly Observations for May 25, 2021

Temp ( °F °C ) Dew Point ( °F °C ) Humidity (%) Winds ( mph kmh ) Pressure ( in mb ) Visibility ( mi km ) Precip ( " mm )
12:53 am 00:53 Clear 70 21.1 63 17.2 79 79 Calm 30.12 1020 10 16 0.00 0.00
1:53 am 01:53 Clear 67 19.4 62 16.7 84 84 Calm 30.11 1020 8 13 0.00 0.00
2:53 am 02:53 Clear 67 19.4 62 16.7 84 84 Calm 30.11 1020 8 13 0.00 0.00
3:53 am 03:53 Hazy 67 19.4 62 16.7 84 84 Calm 30.11 1020 6 10 0.00 0.00
4:35 am 04:35 Clear with Mist and Fog 65 18.3 61 16.1 87 87 Calm 30.14 1021 1 2 0.00 0.00
4:53 am 04:53 Clear with Mist and Fog 66 18.9 62 16.7 87 87 Calm 30.12 1020 3 4 0.00 0.00
5:00 am 05:00 Hazy 67 19.4 62 16.7 84 84 Calm 30.14 1021 5 8 0.00 0.00
5:53 am 05:53 Hazy 67 19.4 62 16.7 84 84 Calm 30.13 1020 4 6 0.00 0.00
6:53 am 06:53 Hazy 69 20.6 64 17.8 84 84 Calm 30.15 1021 6 10 0.00 0.00
7:53 am 07:53 Sunny 72 22.2 65 18.3 79 79 Calm 30.16 1021 7 11 0.00 0.00
8:53 am 08:53 Sunny 79 26.1 64 17.8 60 60 Calm 30.16 1022 10 16 0.00 0.00
9:53 am 09:53 Sunny 83 28.3 63 17.2 51 51 SW 6 9 30.17 1022 10 16 0.00 0.00
10:53 am 10:53 Mostly Sunny 86 30 64 17.8 48 48 W 5 7 30.17 1022 10 16 0.00 0.00
11:53 am 11:53 Mostly Sunny 89 31.7 63 17.2 42 42 VRB 7 11 30.16 1021 10 16 0.00 0.00
12:53 pm 12:53 Partly Cloudy 90 32.2 61 16.1 38 38 SW 12 19 30.14 1021 10 16 0.00 0.00
1:53 pm 13:53 Mostly Sunny 92 33.3 59 15 33 33 SW 13 20 30.13 1020 10 16 0.00 0.00
2:53 pm 14:53 Mostly Sunny 92 33.3 58 14.4 32 32 SW 9 15 30.11 1020 10 16 0.00 0.00
3:53 pm 15:53 Mostly Sunny 93 33.9 58 14.4 31 31 SSW 12 19 30.09 1019 10 16 0.00 0.00
4:53 pm 16:53 Mostly Sunny 91 32.8 58 14.4 33 33 SSW 12 19 30.08 1019 10 16 0.00 0.00
5:53 pm 17:53 Mostly Sunny 90 32.2 58 14.4 34 34 SSW 13 20 30.06 1018 10 16 0.00 0.00
6:53 pm 18:53 Sunny 88 31.1 58 14.4 36 36 SSW 10 17 30.06 1018 10 16 0.00 0.00
7:53 pm 19:53 Sunny 84 28.9 60 15.6 44 44 SSW 6 9 30.08 1019 10 16 0.00 0.00
8:53 pm 20:53 Clear 80 26.7 61 16.1 52 52 SSW 3 6 30.09 1019 10 16 0.00 0.00
9:53 pm 21:53 Clear 77 25 60 15.6 56 56 S 3 6 30.11 1020 10 16 0.00 0.00
10:53 pm 22:53 Clear 74 23.3 60 15.6 62 62 S 3 6 30.11 1020 10 16 0.00 0.00
11:53 pm 23:53 Clear 74 23.3 59 15 60 60 S 5 7 30.10 1019 10 16 0.00 0.00

Powered by AerisWeather